CDT,Max TemperatureF,Mean TemperatureF,Min TemperatureF,Max Dew PointF,MeanDew PointF,Min DewpointF,Max Humidity, Mean Humidity, Min Humidity, Max Sea Level PressureIn, Mean Sea Level PressureIn, Min Sea Level PressureIn, Max VisibilityMiles, Mean VisibilityMiles, Min VisibilityMiles, Max Wind SpeedMPH, Mean Wind SpeedMPH, Max Gust SpeedMPH,PrecipitationIn, CloudCover, Events, WindDirDegrees
2011-10-1,66,49,32,36,32,28,87,58,28,30.37,30.30,30.21,10,10,10,15,6,21,0.00,0,,152
2011-10-2,78,58,39,37,34,30,81,49,21,30.24,30.20,30.14,10,10,9,14,8,18,0.00,0,,174
2011-10-3,80,60,39,39,35,32,81,45,18,30.23,30.19,30.16,10,10,10,17,7,21,0.00,0,,170
2011-10-4,84,65,46,45,36,32,62,46,25,30.19,30.13,30.05,10,10,10,25,11,31,0.00,0,,160
2011-10-5,84,70,57,45,41,39,59,36,20,30.11,30.07,30.02,10,10,3,22,12,28,0.00,0,,167
2011-10-6,78,63,48,43,40,39,71,50,28,30.08,30.03,29.96,10,10,9,29,12,36,0.00,0,,151
2011-10-7,64,64,64,48,48,48,56,56,56,29.97,29.92,29.88,10,10,10,32,22,45,0.00,1,,165
2011-10-8,,,,,,,,,,30.09,30.04,29.96,10,10,8,23,17,31,0.00,2,,184
2011-10-9,,,,,,,,,,30.22,30.16,30.11,10,10,8,22,10,29,0.00,1,,158
2011-10-10,,,,,,,,,,30.10,30.01,29.94,10,10,8,15,11,17,0.04,1,,170
2011-10-11,73,68,62,55,49,46,68,49,38,29.93,29.88,29.80,10,9,5,20,10,24,0.00,2,,167
2011-10-12,60,58,55,55,52,48,88,82,77,29.81,29.74,29.69,10,10,5,17,7,22,0.38,5,Thunderstorm,250
2011-10-13,55,52,48,52,46,41,94,81,71,29.74,29.71,29.68,10,10,5,25,11,30,0.02,1,,304
2011-10-14,51,48,44,45,39,37,87,73,62,29.92,29.82,29.71,10,10,5,26,15,36,0.04,4,,296
2011-10-15,60,50,39,41,35,30,81,61,31,29.99,29.92,29.84,10,10,10,15,11,20,0.01,2,,290
2011-10-16,53,48,42,43,35,27,87,67,38,29.98,29.94,29.85,10,10,10,25,10,31,0.02,1,,298
2011-10-17,57,47,37,30,28,25,70,51,31,29.98,29.95,29.91,10,10,10,23,13,31,0.00,0,,287
2011-10-18,46,39,32,32,27,21,75,62,43,30.07,30.01,29.92,10,10,10,23,14,31,0.00,3,,326
2011-10-19,46,38,30,30,27,21,75,65,53,30.11,30.07,30.04,10,10,10,20,13,22,0.00,6,,339
2011-10-20,53,42,30,34,28,27,87,69,41,30.04,30.00,29.96,10,10,10,20,12,24,0.00,0,,322
2011-10-21,66,45,24,36,29,19,86,56,30,30.07,30.03,29.99,10,10,8,15,6,18,0.00,0,,236
2011-10-22,62,50,37,37,34,30,81,56,32,30.16,30.09,30.02,10,10,7,9,7,,0.00,2,,336
2011-10-23,69,56,42,43,39,30,82,63,33,29.99,29.90,29.81,10,10,10,25,10,36,0.00,2,,257
2011-10-24,66,50,35,39,33,28,87,55,24,30.05,30.00,29.90,10,10,10,14,6,21,0.00,1,,260
2011-10-25,55,50,44,43,37,32,76,63,47,30.03,29.83,29.75,10,10,10,21,12,26,0.00,3,,30
2011-10-26,50,44,39,36,34,32,87,70,58,30.13,30.08,30.02,10,10,10,13,9,,0.00,5,,341
2011-10-27,46,37,28,34,27,18,87,70,34,30.11,30.08,30.06,10,10,9,13,7,17,0.00,0,,291
2011-10-28,50,39,28,30,21,18,69,55,28,30.10,30.07,30.03,10,10,7,26,11,32,0.00,1,,271
2011-10-29,53,40,26,27,21,18,75,48,26,30.08,30.01,29.89,10,10,7,15,8,21,0.00,0,,178
2011-10-30,48,42,37,28,23,21,56,46,34,29.98,29.87,29.79,10,10,9,25,15,32,0.00,5,,289
2011-10-31,55,40,26,30,27,23,87,66,33,30.06,30.00,29.93,10,10,5,14,8,16,0.00,0,,230